Location: *
(46.4000°N, 12.6667°E)
Time: 04:24:53
(UTC+00:00)

CZ-4C R/B - Pass Details

Date: 23 August 2020
Orbit: 629 x 1373 km, 63.4° (Epoch: 22 September)

Event Time Altitude Azimuth Distance (km) Brightness Sun altitude
Rises 03:41:07 0° 195° (SSW) 3,003 4.7 -6.8°
Reaches altitude 10° 03:43:22 10° 188° (S) 2,153 4.0 -6.5°
Maximum altitude 03:47:57 42° 118° (ESE) 1,087 3.2 -5.8°
Drops below altitude 10° 03:53:21 10° 49° (NE) 2,542 6.1 -4.9°
Sets 03:56:13 0° 43° (NE) 3,613 6.8 -4.5°
